When you browse on this site, cookies collect data to enhance your experience and personalize the content and advertising you see.
Visit our Privacy Policy to learn more. By continuing to use the site, you agree to this use of cookies and data.
  • Em Portugal
  • Lista de países
  • Para 7 dias
  • Temperatura da água
  • Mapas de satélite
  • Mapa do tempo
  • Widgets de tempo
  • user-avatar
    Iniciar Sessão

    Previsão horária em Lisboa

    Hoje, 18 Janeiro, Sexta-feira

    Tempo Temperatura Precipitação Vento Pressão Humidade
    00:00 +7°C° 0 mm 3 m/s 762 mmHg 77%
    01:00 +7°C° 0 mm 3 m/s 762 mmHg 78%
    02:00 +7°C° 0 mm 2 m/s 762 mmHg 79%
    03:00 +6°C° 0 mm 2 m/s 762 mmHg 80%
    04:00 +6°C° 0 mm 2 m/s 762 mmHg 80%
    05:00 +7°C° 0 mm 1 m/s 762 mmHg 81%
    06:00 +8°C° 0 mm 1 m/s 762 mmHg 80%
    07:00 +8°C° 0 mm 1 m/s 762 mmHg 79%
    08:00 +9°C° 0 mm 1 m/s 762 mmHg 78%
    09:00 +9°C° 0 mm 2 m/s 762 mmHg 72%
    10:00 +12°C° 0 mm 2 m/s 763 mmHg 66%
    11:00 +14°C° 0 mm 2 m/s 763 mmHg 60%
    12:00 +13°C° 0.1 mm 2 m/s 762 mmHg 64%
    13:00 +13°C° 0.1 mm 2 m/s 762 mmHg 69%
    14:00 +13°C° 0.1 mm 2 m/s 761 mmHg 73%
    15:00 +11°C° 0.2 mm 3 m/s 761 mmHg 76%
    16:00 +11°C° 0.2 mm 3 m/s 761 mmHg 80%
    17:00 +11°C° 0.2 mm 3 m/s 761 mmHg 83%
    18:00 +11°C° 1 mm 3 m/s 761 mmHg 87%
    19:00 +11°C° 1 mm 3 m/s 761 mmHg 91%
    20:00 +12°C° 1 mm 3 m/s 761 mmHg 95%
    21:00 +11°C° 0 mm 3 m/s 761 mmHg 95%
    22:00 +11°C° 0 mm 3 m/s 761 mmHg 96%
    23:00 +12°C° 0 mm 2 m/s 761 mmHg 96%

    Amanhã, 19 Janeiro, Sábado

    Tempo Temperatura Precipitação Vento Pressão Humidade
    00:00 +12°C° 0 mm 2 m/s 761 mmHg 96%
    01:00 +10°C° 0 mm 2 m/s 760 mmHg 95%
    02:00 +10°C° 0 mm 2 m/s 760 mmHg 95%
    03:00 +12°C° 0 mm 2 m/s 760 mmHg 95%
    04:00 +12°C° 0 mm 2 m/s 760 mmHg 95%
    05:00 +11°C° 0 mm 3 m/s 760 mmHg 96%
    06:00 +12°C° 0 mm 3 m/s 760 mmHg 93%
    07:00 +12°C° 0 mm 4 m/s 760 mmHg 91%
    08:00 +13°C° 0 mm 5 m/s 760 mmHg 88%
    09:00 +14°C° 0.1 mm 5 m/s 760 mmHg 85%
    10:00 +15°C° 0.1 mm 6 m/s 759 mmHg 82%
    11:00 +15°C° 0.1 mm 7 m/s 759 mmHg 79%
    12:00 +15°C° 1.5 mm 7 m/s 758 mmHg 82%
    13:00 +14°C° 1.5 mm 7 m/s 758 mmHg 85%
    14:00 +13°C° 1.5 mm 8 m/s 757 mmHg 88%
    15:00 +14°C° 0.3 mm 7 m/s 757 mmHg 89%
    16:00 +14°C° 0.3 mm 6 m/s 757 mmHg 89%
    17:00 +14°C° 0.3 mm 6 m/s 756 mmHg 90%
    18:00 +13°C° 0 mm 6 m/s 756 mmHg 91%
    19:00 +13°C° 0 mm 5 m/s 757 mmHg 91%
    20:00 +13°C° 0 mm 5 m/s 757 mmHg 92%
    21:00 +13°C° 0.1 mm 5 m/s 757 mmHg 91%
    22:00 +13°C° 0.1 mm 5 m/s 757 mmHg 90%
    23:00 +13°C° 0.1 mm 5 m/s 757 mmHg 90%

    Depois de amanhã, 20 Janeiro, Domingo

    Tempo Temperatura Precipitação Vento Pressão Humidade
    00:00 +12°C° 0 mm 5 m/s 757 mmHg 87%
    01:00 +11°C° 0 mm 6 m/s 758 mmHg 84%
    02:00 +10°C° 0 mm 7 m/s 758 mmHg 81%
    03:00 +10°C° 0 mm 7 m/s 759 mmHg 80%
    04:00 +9°C° 0 mm 7 m/s 759 mmHg 78%
    05:00 +9°C° 0 mm 7 m/s 759 mmHg 76%
    06:00 +9°C° 0 mm 7 m/s 760 mmHg 74%
    07:00 +10°C° 0 mm 7 m/s 761 mmHg 72%
    08:00 +10°C° 0 mm 7 m/s 761 mmHg 70%
    09:00 +11°C° 0 mm 8 m/s 762 mmHg 65%
    10:00 +12°C° 0 mm 8 m/s 762 mmHg 60%
    11:00 +13°C° 0 mm 9 m/s 762 mmHg 55%
    12:00 +15°C° 0 mm 9 m/s 762 mmHg 54%
    13:00 +15°C° 0 mm 9 m/s 762 mmHg 54%
    14:00 +15°C° 0 mm 9 m/s 762 mmHg 53%
    15:00 +13°C° 0 mm 8 m/s 762 mmHg 57%
    16:00 +12°C° 0 mm 8 m/s 763 mmHg 62%
    17:00 +10°C° 0 mm 7 m/s 763 mmHg 66%
    18:00 +10°C° 0 mm 7 m/s 764 mmHg 67%
    19:00 +10°C° 0 mm 7 m/s 764 mmHg 67%
    20:00 +9°C° 0 mm 7 m/s 765 mmHg 68%
    21:00 +9°C° 0 mm 7 m/s 765 mmHg 70%
    22:00 +9°C° 0 mm 7 m/s 765 mmHg 72%
    23:00 +9°C° 0 mm 7 m/s 765 mmHg 74%

    21 Janeiro, Segunda-feira

    Tempo Temperatura Precipitação Vento Pressão Humidade
    00:00 +9°C° 0 mm 7 m/s 765 mmHg 74%
    01:00 +9°C° 0 mm 7 m/s 765 mmHg 74%
    02:00 +9°C° 0 mm 7 m/s 765 mmHg 74%
    03:00 +9°C° 0 mm 6 m/s 765 mmHg 74%
    04:00 +9°C° 0 mm 6 m/s 765 mmHg 74%
    05:00 +8°C° 0 mm 6 m/s 765 mmHg 74%
    06:00 +8°C° 0 mm 6 m/s 765 mmHg 73%
    07:00 +8°C° 0 mm 6 m/s 766 mmHg 73%
    08:00 +9°C° 0 mm 6 m/s 766 mmHg 72%
    09:00 +10°C° 0 mm 6 m/s 766 mmHg 66%
    10:00 +12°C° 0 mm 5 m/s 767 mmHg 59%
    11:00 +14°C° 0 mm 5 m/s 767 mmHg 53%
    12:00 +14°C° 0 mm 6 m/s 766 mmHg 52%
    13:00 +15°C° 0 mm 6 m/s 766 mmHg 50%
    14:00 +15°C° 0 mm 6 m/s 766 mmHg 49%
    15:00 +14°C° 0 mm 6 m/s 766 mmHg 54%
    16:00 +11°C° 0 mm 6 m/s 766 mmHg 59%
    17:00 +10°C° 0 mm 6 m/s 766 mmHg 64%
    18:00 +10°C° 0 mm 6 m/s 767 mmHg 67%
    19:00 +9°C° 0 mm 6 m/s 767 mmHg 69%
    20:00 +8°C° 0 mm 5 m/s 768 mmHg 72%
    21:00 +8°C° 0 mm 5 m/s 768 mmHg 74%
    22:00 +8°C° 0 mm 5 m/s 768 mmHg 77%
    23:00 +8°C° 0 mm 4 m/s 768 mmHg 79%

    22 Janeiro, Terça-feira

    Tempo Temperatura Precipitação Vento Pressão Humidade
    00:00 +8°C° 0 mm 4 m/s 767 mmHg 80%
    01:00 +7°C° 0 mm 4 m/s 767 mmHg 81%
    02:00 +7°C° 0 mm 5 m/s 767 mmHg 82%
    03:00 +7°C° 0 mm 5 m/s 767 mmHg 83%
    04:00 +7°C° 0 mm 5 m/s 767 mmHg 83%
    05:00 +7°C° 0 mm 5 m/s 767 mmHg 83%
    06:00 +8°C° 0 mm 5 m/s 767 mmHg 80%
    07:00 +8°C° 0 mm 5 m/s 767 mmHg 78%
    08:00 +8°C° 0 mm 5 m/s 767 mmHg 75%
    09:00 +10°C° 0 mm 6 m/s 767 mmHg 69%
    10:00 +11°C° 0 mm 6 m/s 767 mmHg 63%
    11:00 +12°C° 0 mm 7 m/s 767 mmHg 57%
    12:00 +12°C° 0 mm 7 m/s 766 mmHg 59%
    13:00 +14°C° 0 mm 7 m/s 765 mmHg 60%
    14:00 +14°C° 0 mm 7 m/s 764 mmHg 62%
    15:00 +12°C° 0.1 mm 7 m/s 764 mmHg 65%
    16:00 +12°C° 0.1 mm 8 m/s 764 mmHg 68%
    17:00 +11°C° 0.1 mm 8 m/s 764 mmHg 71%
    18:00 +11°C° 0 mm 7 m/s 765 mmHg 72%
    19:00 +10°C° 0 mm 7 m/s 765 mmHg 72%
    20:00 +10°C° 0 mm 6 m/s 765 mmHg 72%
    21:00 +10°C° 0 mm 6 m/s 765 mmHg 72%
    22:00 +10°C° 0 mm 5 m/s 765 mmHg 72%
    23:00 +10°C° 0 mm 5 m/s 765 mmHg 72%

    23 Janeiro, Quarta-feira

    Tempo Temperatura Precipitação Vento Pressão Humidade
    00:00 +10°C° 0 mm 5 m/s 765 mmHg 74%
    01:00 +10°C° 0 mm 5 m/s 764 mmHg 76%
    02:00 +9°C° 0 mm 5 m/s 764 mmHg 78%
    03:00 +10°C° 0 mm 6 m/s 764 mmHg 78%
    04:00 +10°C° 0 mm 7 m/s 763 mmHg 78%
    05:00 +11°C° 0 mm 7 m/s 763 mmHg 79%
    06:00 +11°C° 0 mm 7 m/s 763 mmHg 78%
    07:00 +11°C° 0 mm 7 m/s 763 mmHg 78%
    08:00 +11°C° 0 mm 7 m/s 763 mmHg 78%
    09:00 +12°C° 0 mm 8 m/s 763 mmHg 74%
    10:00 +13°C° 0 mm 8 m/s 763 mmHg 70%
    11:00 +15°C° 0 mm 8 m/s 763 mmHg 66%
    12:00 +15°C° 0 mm 8 m/s 762 mmHg 65%
    13:00 +15°C° 0 mm 8 m/s 761 mmHg 64%
    14:00 +15°C° 0 mm 9 m/s 760 mmHg 64%
    15:00 +15°C° 0 mm 8 m/s 760 mmHg 67%
    16:00 +13°C° 0 mm 8 m/s 760 mmHg 70%
    17:00 +12°C° 0 mm 7 m/s 760 mmHg 73%
    18:00 +12°C° 0 mm 7 m/s 760 mmHg 76%
    19:00 +12°C° 0 mm 7 m/s 759 mmHg 78%
    20:00 +12°C° 0 mm 7 m/s 759 mmHg 80%
    21:00 +12°C° 0 mm 7 m/s 759 mmHg 79%
    22:00 +12°C° 0 mm 7 m/s 759 mmHg 77%
    23:00 +12°C° 0 mm 7 m/s 758 mmHg 76%
    Mostrar mais